Miscellaneous Local Product
Issued by NWS North Platte, NE

Home | Current Version | Previous Version | Graphics & Text | Print | Product List | Glossary On
Versions: 1 2 3 4 5 6 7 8 9 10 11 12 13 14 15 16 17 18 19 20 21 22 23 24 25 26 27 28 29 30 31 32 33 34 35 36 37 38 39 40 41 42 43 44 45 46 47 48 49 50
660
AXUS43 KLBF 200610
MISLBF


WESTERN AND NORTH CENTRAL NEBRASKA HOURLY WEATHER ROUNDUP
NATIONAL WEATHER SERVICE NORTH PLATTE NE
1200 AM CST FRI JAN 20 2017

NOTE: "FAIR" INDICATES FEW OR NO CLOUDS BELOW 12,000 FEET WITH NO
SIGNIFICANT WEATHER AND/OR OBSTRUCTIONS TO VISIBILITY.

NOTE: STATIONS NOT REPORTING VARIABLES SUCH AS SKY/WEATHER OR
PRESSURE ARE PROVIDED BY RAWS AND APRS NETWORKS AND ARE NOT UNDER
NATIONAL WEATHER SERVICE QUALITY CONTROL.

...OBSERVATIONS IN AND NEAR THE EASTERN PANHANDLE OF NEBRASKA...

CITY           SKY/WX    TMP DP  RH WIND       PRES   REMARKS
PINE RIDGE     CLOUDY    25  20  81 W3        29.46F
CHADRON        CLOUDY    25  20  81 SW10      29.49S WCI  15
ALLIANCE       CLOUDY    20  17  88 W3        29.49S
SIDNEY         CLOUDY    31  24  75 W12       29.50F WCI  22
CRESCENT LAKE    N/A     28  26  90 E3          N/A
$$

...OBSERVATIONS IN NORTHERN NEBRASKA AND FAR SOUTHERN SOUTH DAKOTA...

CITY           SKY/WX    TMP DP  RH WIND       PRES   REMARKS
WINNER         MOCLDY    36  33  89 S12       29.45F WCI  28
VALENTINE      CLOUDY    29  26  89 SW6       29.45S FOG     WCI  23
THEDFORD       CLOUDY    34  33  96 SW12      29.50S FOG     WCI  25
AINSWORTH      CLOUDY    34  34  99 S15       29.47S WCI  25
O`NEILL        CLOUDY    42  39  91 S12       29.53R
ORD            CLOUDY    40  36  86 S9        29.55S WCI  34
BROKEN BOW     CLOUDY    39  37  92 S9        29.54S WCI  33
VALENTINE NWR    N/A     50  28  43 SW13G20     N/A
BUTTE            N/A     38  36  93 S18G25      N/A  WCI  28
HALSEY           N/A     34  34 100 S6G15       N/A  WCI  29
SARGENT          N/A     39  29  69 CALM        N/A
CHAMBERS         N/A     40  39  95 S3          N/A
EWING            N/A     40  39  96 S12         N/A  WCI  33
$$

...OBSERVATIONS IN SOUTHWEST NEBRASKA AND FAR NORTHEAST COLORADO...

CITY           SKY/WX    TMP DP  RH WIND       PRES   REMARKS
WRAY           FOG       28  28 100 CALM      29.54R VSB 1/4
HOLYOKE        FAIR      21  19  93 S7        29.53S WCI  13
IMPERIAL       FOG       33  32  96 SW6       29.53F VSB 1/4 WCI  28
OGALLALA       FOG       32  32  99 SW3       29.53S VSB 1/2
NORTH PLATTE   CLOUDY    38  36  92 SW7       29.55S WCI  33
MCCOOK         FOG       34  34 100 CALM      29.57R VSB 1/2
LEXINGTON      CLOUDY    37  36  96 SW5       29.56S FOG     WCI  33
STAPLETON        N/A     34  33  96 CALM        N/A
GOTHENBURG       N/A     39  37  93 CALM        N/A
CALLAWAY         N/A     38  37  95 SW8         N/A  WCI  32
$$

...OBSERVATIONS IN CENTRAL LINCOLN COUNTY AREA...

CITY           SKY/WX    TMP DP  RH WIND       PRES   REMARKS
N.P. AIRPORT   CLOUDY    38  36  92 SW7       29.55S WCI  33
N.P. DOWNTOWN    N/A     37  36  95 SW3         N/A
N.P. SOUTHEAST   N/A     37  35  93 SW5         N/A  WCI  33
N.P. HILLCREST   N/A     36  36 100 SW5         N/A  WCI  32
$$

...SOME OBSERVATIONS FROM AROUND THE REGION...

CITY           SKY/WX    TMP DP  RH WIND       PRES   REMARKS
LARAMIE        CLOUDY    22  15  75 W8        29.54S WCI  12
CHEYENNE       CLOUDY    31  19  61 W10       29.50F WCI  22
DENVER         CLOUDY    31  20  63 S8        29.50S WCI  23
AKRON          CLOUDY    31  21  66 CALM      29.51F
SCOTTSBLUFF    CLOUDY    30  22  72 N5        29.50F WCI  25
RAPID CITY     CLOUDY    25  17  72 NW5       29.42S WCI  19
BISMARCK       CLOUDY    12  10  92 NE5       29.47F WCI   4
PIERRE         FOG       22  20  92 W3        29.44F VSB 1/4
SIOUX FALLS    DRIZZLE   37  37 100 S10       29.58F FOG     WCI  30
OMAHA          FOG       39  36  89 SE3       29.61F VSB 1/2
GRAND ISLAND   FOG       38  38 100 SW3       29.59R VSB 1/2
KANSAS CITY    FOG       45  43  93 NE3       29.61F VSB 1/4
WICHITA        FOG       42  42 100 E3        29.57S VSB 1/4
OKLAHOMA CITY  CLOUDY    42  42 100 SE7       29.52F FOG
DALLAS         PTCLDY    55  53  93 S15       29.60F
AMARILLO       CLOUDY    47  32  56 SW13      29.52F
DODGE CITY     CLEAR     34  33  96 NE5       29.52F FOG     WCI  30
HAYS           FOG       42  42 100 SE5       29.57S VSB 1/4
GOODLAND       CLOUDY    33  33 100 S7        29.52F FOG     WCI  27
$$




USA.gov is the U.S. government's official web portal to all federal, state and local government web resources and services.